Home   Weather   Nome   Past weeks

Flag for USA Past Weather in Nome, Alaska, USA — Yesterday and Last 2 Weeks

36 °F

Mostly cloudy.

Feels Like: 28 °F
Forecast: 26 / 33 °F
Wind: 13 mph from Southwest

Location: Nome Airport

Current Time: Oct 22, 2016 at 5:30:22 AM

Latest Report: Oct 22, 2016 at 4:53 AM

Visibility: 10 mi

Pressure: 30.20 "Hg

Humidity: 64%

Dew Point: 25 °F

Location of NomeLocation

Past Weather in Nome — Graph


Nome Temperature Yesterday

Maximum temperature yesterday: 35 °F (at 3:53 PM)
Minimum temperature yesterday: 19 °F (at 9:53 AM)
Average temperature yesterday: 26 °F

High & Low Weather Summary for the Past Weeks

High58 °F (Oct 12, 4:53 PM)97% (Oct 10, 3:53 AM)30.21 "Hg (Oct 10, 3:53 AM)
Low19 °F (Oct 19, 1:53 AM)20% (Oct 15, 3:53 PM)29.49 "Hg (Oct 12, 4:53 PM)
Average36 °F65%29.72 "Hg
* Reported Oct 7 3:53 AM — Oct 22 3:53 AM, Nome, Weather by CustomWeather, © 2016

Note: Actual official high and low records may vary slightly from our data, if they occured in-between our weather recording intervals... More about our weather records


Nome Weather History for the Previous 24 Hours

Scroll right to see more
Time TempWeatherWind HumidityBarometerVisibility
3:53 AM
Sat, Oct 22
34 °FOvercast.8 mph64%30.21 "Hg10 mi
2:53 AM35 °FOvercast.9 mph61%30.20 "Hg10 mi
1:53 AM31 °FOvercast.3 mph73%30.21 "Hg10 mi
12:53 AM27 °FOvercast.No wind89%30.21 "Hg10 mi
11:53 PM
Fri, Oct 21
26 °FMostly cloudy.No wind88%30.21 "Hg10 mi
10:53 PM25 °FPassing clouds.5 mph88%30.20 "Hg10 mi
9:53 PM24 °FPassing clouds.3 mph88%30.19 "Hg10 mi
8:53 PM26 °FPassing clouds.No wind81%30.18 "Hg10 mi
7:53 PM30 °FPassing clouds.7 mph75%30.17 "Hg10 mi
6:53 PM29 °FScattered clouds.8 mph79%30.15 "Hg10 mi
5:53 PM34 °FScattered clouds.8 mph67%30.15 "Hg10 mi
4:53 PM35 °FScattered clouds.9 mph59%30.14 "Hg10 mi
3:53 PM35 °FPassing clouds.6 mph56%30.14 "Hg10 mi
2:53 PM34 °FSunny.7 mph67%30.14 "Hg10 mi
1:53 PM30 °FPassing clouds.No wind79%30.12 "Hg10 mi
12:53 PM27 °FPassing clouds.No wind78%30.11 "Hg10 mi
11:53 AM21 °FPassing clouds.5 mph81%30.11 "Hg10 mi
10:53 AM20 °FPassing clouds.No wind82%30.09 "Hg8 mi
9:53 AM19 °FPassing clouds.No wind85%30.08 "Hg10 mi
8:53 AM20 °FClear.No wind85%30.06 "Hg10 mi
7:53 AM20 °FClear.No wind85%30.05 "Hg10 mi
6:53 AM23 °FClear.3 mph85%30.05 "Hg10 mi
5:53 AM23 °FClear.7 mph85%30.04 "Hg10 mi
Weather by CustomWeather, © 2016

See weather overviewHow to use our weather pages